User: anonymous
Location: Unspecified
(0.0000°N, 0.0000°E)
Time: 13:34:22
(UTC+02:00)
Language:

Cosmos 1626 Rocket - Orbit

View from above orbital plane
View from above orbital plane
View from above satellite
View from above satellite

Ground track
Ground track

The orbit data is extracted from the following two-line orbital elements,

1 15495U 85009B   14244.62011024  .00000289  00000-0  32308-4 0  8669
2 15495 082.5227 062.2272 0021871 094.0907 266.2808 14.83263640598800
Epoch (UTC): 01 September 2014 14:52:57
Eccentricity: 0.0021871
inclination: 82.5227°
perigee height: 604 km
apogee height: 634 km
right ascension of ascending node: 62.2272°
argument of perigee: 94.0907°
revolutions per day: 14.83263640
mean anomaly at epoch: 266.2808°
orbit number at epoch: 59880

The dashed part of the orbit path shows where the satellite is in the earth's shadow,  

DLR